THORAD AGENA D DEB, 4859

Orbit data source: Space-Track

THORAD AGENA D DEB, 4859 is space debris in SSO originally from a launch on Wed, 08 Apr 1970 UTC launched from the Air Force Western Test Range (AFWTR). Debris objects in space refer to the collection of defunct objects orbiting the Earth. Examples of debris include non-operational satellites, rocket bodies, and fragments generated from explosions, collisions, or faulty payload assembly.

Loading next visibility...
Identifier
4859, 1970-025EP
Orbit
SSO
Country
Flag of USUS
Related business
Manufacturer
Unknown
Mission
Spacecraft
Bus & Motor
Unknown
Mass
Unknown
Launch date (UTC)
1970-04-08 (56 years ago)
Launch vehicle
Unknown
Launch site
Air Force Western Test Range (AFWTR)
Object type
Payload
Rocket body
Debris
Shape & HBR
Unknown shape, 0.1 m
Radar Cross Section
Medium (>0.1 m² and <1 m²)

Expand to show TLE details & history
Last TLE update: 1 day ago

TLE from 1 day ago
0 THORAD AGENA D DEB
1 04859U 70025EP  26263.25340642  .00000229  00000-0  35911-3 0  9990
2 04859  99.9486   3.8554 0046176  66.3127 321.5480 13.61306082780656
Epoch: 2026-09-20T06:04Z
TLE epoch observation values (Epoch: 2026-09-20T06:04:54.314Z)
Latitude
27.12108°
Longitude
-91.64872°
Altitude
1,007.418 km
Speed
7.364 km/s
True Right ascension
23h 54m 54s
True Declination
26° 59' 11"
Sunlit
Object was in full shadow at epoch
Visualization orbit readout
Latitude
Unknown
Longitude
Unknown
Altitude
Unknown
Speed
Unknown
Apparent Right ascension
Unknown
Apparent Declination
Unknown
Sunlit
N/A
Visualization observer readout
Local Sidereal Time
06:56:40
Azimuth
Unknown
Elevation
Unknown
Doppler factor
Unknown
Orbital elements
Apogee altitude
1,062.448 km
Perigee altitude
994.049 km
Semi-major axis
7,406.385 km
Eccentricity
0.00462
Inclination
99.9486°
RAAN
3.8554°
Arg. of periapsis
66.3127°
True anomaly
321.21746°
Mean anomaly
321.548°
Eccentric anomaly
321.38288°
Mean motion
3.40513 °/min
Orbital period
105.72 mins
BSTAR
0.00035911

Documentation

Showing up to 5 results
|